Flag for Germany Weather past 2 weeks in Burg, Saxony-Anhalt, Germany

Now
61 °F

Clear.


Feels Like: 61 °F
Forecast: 62 / 87 °F
Wind: 1 mph from Northeast

Location: Magdeburg

Current Time: Jul 1, 2015 at 2:15:28 AM

Latest Report: Jul 1, 2015 at 2:00 AM


Visibility: 37 mi

Pressure: 30.21 "Hg

Humidity: 70%

Dew point: 51 °F

Location of BurgLocation

Historic Weather in Burg — Graph

°F

Burg temperature yesterday

Maximum temperature yesterday: 80 °F (at 6:00 PM)
Minimum temperature yesterday: 58 °F (at 5:00 AM)
Average temperature yesterday: 68 °F

Past Weeks' High & Low Weather Summary

 TemperatureHumidityPressure
High80 °F (Jun 29, 6:00 PM)96% (Jun 23, 6:00 AM)30.30 "Hg (Jun 23, 6:00 AM)
Low44 °F (Jun 16, 6:00 AM)32% (Jun 30, 4:00 PM)29.63 "Hg (Jun 23, 2:00 AM)
Average61 °F69%30.04 "Hg
* Reported Jun 16 1:00 AM — Jul 1 1:00 AM, Burg, Weather by CustomWeather, © 2015

Note: Actual official high and low records may vary slightly from our data, if they occured in-between our weather recording intervals... More about our weather records

Advertising

Burg weather history for previous 24 hours

 ConditionsComfort  
Time TempWeatherWind HumidityBarometerVisibility
1:00 AM
Wed, Jul 1
61 °FClear.1 mph74%30.20 "Hg43 mi
12:00 AM63 °FClear.1 mph67%30.19 "Hg43 mi
11:00 PM
Tue, Jun 30
68 °FPassing clouds.2 mph51%30.19 "Hg43 mi
10:00 PM70 °FClear.1 mph46%30.18 "Hg43 mi
9:00 PM74 °FPassing clouds.2 mph38%30.16 "Hg37 mi
8:00 PM77 °FPassing clouds.2 mph37%30.15 "Hg37 mi
7:00 PM79 °FScattered clouds.2 mph35%30.15 "Hg37 mi
6:00 PM80 °FScattered clouds.2 mph32%30.15 "Hg37 mi
4:00 PM78 °FScattered clouds.3 mph32%30.17 "Hg37 mi
3:00 PM77 °FPassing clouds.3 mph38%30.18 "Hg37 mi
2:00 PM75 °FScattered clouds.3 mph38%30.19 "Hg31 mi
1:00 PM74 °FPassing clouds.3 mph42%30.20 "Hg31 mi
12:00 PM72 °FPassing clouds.2 mph45%30.21 "Hg31 mi
10:00 AM70 °FScattered clouds.2 mph57%30.22 "Hg28 mi
9:00 AM65 °FScattered clouds.2 mph65%30.22 "Hg25 mi
8:00 AM62 °FPartly sunny.3 mph74%30.20 "Hg25 mi
7:00 AM59 °FPartly sunny.1 mph85%30.19 "Hg22 mi
6:00 AM58 °FPartly sunny.1 mph87%30.18 "Hg16 mi
5:00 AM58 °FOvercast.2 mph88%30.17 "Hg11 mi
4:00 AM58 °FClear.2 mph87%30.16 "Hg13 mi
3:00 AM60 °FPassing clouds.1 mph83%30.17 "Hg16 mi
2:00 AM61 °FPassing clouds.1 mph80%30.17 "Hg18 mi
Weather by CustomWeather, © 2015

See weather overviewHow to use our weather pages